Location: Briis
(48.6240°N, 2.1211°E)
Time: 07:15:15
(UTC+00:00)

USA 234 - Pass Details

Date: 25 September 2020
Orbit: 1102 x 1106 km, 123.0° (Epoch: 16 October)

Event Time Altitude Azimuth Distance (km) Brightness Sun altitude
Rises 00:35:56 0° 75° (ENE) 3,921 6.5 -41.0°
Reaches altitude 10° 00:38:32 10° 69° (ENE) 2,964 5.8 -40.9°
Enters shadow 00:43:29 40° 26° (NNE) 1,583 4.3 -40.6°
